[[{"header":{"parameterUnit":"m.s-1","parameterCategory":1,"la1":30.2991,"la2":30.254,"lo1":-89.0895,"lo2":-89.0444,"dy":0.0017,"dx":0.0017,"nx":28,"ny":28,"refTime":"2024-06-18T21:00:00:Z","depth":0,"parameterNumber":2,"parameterNumberName":"U-component_of_WINDS"},"data":[0,0,0,0,0,0,0,0,0,0,0,0,0,0,0,0,0,0,0,0,0,0,0,0,0,0,0,0,0,0,0,0,0,0,0,0,0,0,0,0,0,0,0,0,0,0,0,0,0,0,0,0,0,0,0,0,0,0,-9.023,-9.0231,0,-9.0311,-9.0312,-9.0313,-9.0153,-9.0148,-9.0143,-9.0138,-9.0217,-9.0223,-9.023,0,0,0,0,0,0,0,0,0,0,0,0,0,-8.9935,-8.9941,-9.023,-9.0231,-9.0232,-9.0311,-9.0312,-9.0313,-9.0154,-9.0148,-9.0142,-9.0136,-9.0214,-9.0223,-9.0231,0,0,0,0,0,0,0,0,0,0,0,0,0,-9.0044,-8.9944,-9.023,-9.0163,-9.0157,-9.0311,-9.0312,-9.0313,-9.0156,-9.0148,-9.014,-9.0133,-9.0212,-9.0222,-9.0232,-9.0453,0,0,-9.0264,-9.0269,0,0,0,0,0,0,0,0,-9.0038,-9.0055,-9.0172,-9.0168,-9.0162,-9.0214,-9.0236,-9.036,-9.0158,-9.0156,-9.0138,-9.0129,-9.0222,-9.0231,-9.0263,-9.0457,-9.046,-9.0265,-9.0271,-9.0276,-9.0279,0,0,0,0,0,0,0,-9.0031,-9.0051,-9.0262,-9.0173,-9.0168,-9.0127,-9.0134,-9.0259,-9.0232,-9.0156,-9.0144,-9.0156,-9.0218,-9.0254,-9.0264,-9.0461,-9.0265,-9.0274,-9.028,-9.0284,-9.084,-9.0848,0,0,0,0,0,0,-9.0032,-9.0046,-9.0259,-9.0264,-9.008,-9.0139,-9.0147,-9.0205,-9.023,-9.0226,-9.0163,-9.0149,-9.024,-9.0252,-9.0266,-9.0525,-9.0276,-9.0285,-9.0291,-9.0831,-9.0842,-9.0851,0,0,0,0,0,0,-9.0027,-9.0053,-9.0256,-9.0152,-9.0175,-9.0152,-9.022,-9.0211,-9.0246,-9.0236,-9.0229,-9.0205,-9.0234,-9.0251,-9.0408,-9.0525,-9.029,-9.03,-9.0821,-9.0834,-9.0846,-9.1046,0,0,0,0,0,0,-9.0019,-9.0052,-9.0136,-9.0155,-9.0181,-9.0398,-9.0227,-9.0218,-9.0265,-9.0247,-9.0273,-9.027,-9.0229,-9.0393,-9.0418,-9.0535,-9.0308,-9.081,-9.0827,-9.0842,-9.1028,-9.1064,-9.1094,0,0,0,0,0,-9.0009,-9.0189,-9.0141,-9.0168,-9.0286,-9.0405,-9.042,-9.037,-9.0276,-9.0359,-9.0353,-9.0269,-9.051,-9.0411,-9.0437,-9.056,-9.0803,-9.0822,-9.0841,-9.1014,-9.1057,-9.1093,0,0,0,0,0,0,-9.0182,-9.019,-9.0137,-9.0329,-9.0368,-9.0378,-9.0482,-9.0418,-9.0483,-9.0463,-9.0398,-9.0405,-9.0574,-9.0583,-9.0473,-9.0775,-9.064,-9.0665,-9.0762,-9.0803,-9.0835,-9.0828,-9.0316,0,0,0,0,0,-9.0243,-9.034,-9.0341,-9.051,-9.0532,-9.0505,-9.0555,-9.0514,-9.0551,-9.0566,-9.057,-9.0608,-9.0692,-9.0748,-9.0825,-9.103,-9.1033,-9.1128,-9.1161,-9.1188,-9.1209,-9.1317,-9.1359,-9.0913,-9.0913,-9.0913,0,0,-9.0368,-9.0385,-9.045,-9.0545,-9.057,-9.0671,-9.0519,-9.0632,-9.0706,-9.0582,-9.073,-9.0736,-9.0774,-9.0956,-9.1036,-9.0968,-9.1333,-9.1212,-9.1233,-9.124,-9.1341,-9.1383,-9.1421,-9.0926,-9.0924,-9.0922,0,0,-9.0648,-9.0672,-9.0814,-9.0844,-9.0884,-9.0865,-9.09,-9.0921,-9.092,-9.1068,-9.0977,-9.1064,-9.121,-9.1241,-9.1276,-9.1571,-9.1495,-9.1598,-9.1767,-9.1873,-9.1908,-9.1939,-9.2042,-9.208,-9.162,-9.1621,-9.1621,0,-9.0798,-9.0948,-9.0895,-9.1015,-9.1059,-9.0955,-9.1097,-9.1128,-9.1192,-9.1224,-9.1148,-9.133,-9.1348,-9.1535,-9.1607,-9.164,-9.1676,-9.1592,-9.1908,-9.1938,-9.1966,-9.2063,-9.2102,-9.1633,-9.1631,-9.163,-9.1629,0,-9.1129,-9.1235,-9.1345,-9.1411,-9.1467,-9.1598,-9.1564,-9.1628,-9.1584,-9.1572,-9.1724,-9.1743,-9.1822,-9.1864,-9.1821,-9.2045,-9.2002,-9.1919,-9.1781,-9.2021,-9.2111,-9.2148,-9.165,-9.1645,-9.1642,-9.1639,0,0,-9.1516,-9.1554,-9.1595,-9.1623,-9.1662,-9.1741,-9.1868,-9.1946,-9.2001,-9.205,-9.2153,-9.2281,-9.2204,-9.2244,-9.2204,-9.2297,-9.2527,-9.2202,-9.2202,-9.2259,-9.2774,-9.2834,-9.2878,-9.248,-9.2487,-9.2492,-9.277,0,-9.1792,-9.201,-9.1967,-9.218,-9.2275,-9.2179,-9.2289,-9.2324,-9.2318,-9.2397,-9.239,-9.2481,-9.2374,-9.2397,-9.2486,-9.2481,-9.2629,-9.2461,-9.2572,-9.2577,-9.2562,-9.2925,-9.2989,-9.3249,-9.2805,-9.2811,-9.2815,0,-9.2141,-9.2204,-9.2427,-9.2451,-9.2489,-9.2589,-9.2657,-9.2735,-9.2774,-9.2762,-9.2809,-9.2751,-9.2876,-9.2741,-9.291,-9.2797,-9.2841,-9.2845,-9.2854,-9.2859,-9.2708,-9.2937,-9.3332,-9.337,-9.2871,-9.2866,-9.2862,0,-9.2397,-9.2539,-9.2689,-9.2717,-9.275,-9.2822,-9.2839,-9.287,-9.292,-9.298,-9.3011,-9.3086,-9.3125,-9.3184,-9.3147,-9.3053,-9.3323,-9.3185,-9.3315,-9.3316,-9.3373,-9.3369,-9.3776,-9.3408,-9.3407,-9.3407,-9.3406,0,-9.2707,-9.2846,-9.2805,-9.2898,-9.3051,-9.3001,-9.3154,-9.3159,-9.3188,-9.3279,-9.3201,-9.3288,-9.3237,-9.332,-9.3293,-9.3436,-9.3456,-9.3449,-9.3439,-9.3454,-9.3454,-9.3478,-9.3458,-9.3417,-9.3415,-9.3413,-9.3411,0,-9.3017,-9.2996,-9.3154,-9.3173,-9.3181,-9.3293,-9.3308,-9.3394,-9.3384,-9.35,-9.3524,-9.3507,-9.3601,-9.3572,-9.3673,-9.3655,-9.3836,-9.3805,-9.3823,-9.3814,-9.3945,-9.3932,-9.4379,-9.4434,-9.4034,-9.4038,-9.4041,0,-9.3214,-9.332,-9.3351,-9.3407,-9.343,-9.3522,-9.3573,-9.3529,-9.3585,-9.3638,-9.3717,-9.3805,-9.3871,-9.4026,-9.4022,-9.4098,-9.4066,-9.4218,-9.4077,-9.4088,-9.4065,-9.4058,-9.4067,-9.4245,-9.4249,-9.4253,-9.4256,0,-9.3566,-9.355,-9.3628,-9.3703,-9.3767,-9.3823,-9.3872,-9.3922,-9.3881,-9.3949,-9.4044,-9.4097,-9.4201,-9.4288,-9.4358,-9.4374,-9.4308,-9.4302,-9.4335,-9.4349,-9.4354,-9.435,-9.3896,-9.429,-9.4287,-9.4284,-9.4282,-9.4281,-9.3823,-9.3912,-9.3948,-9.4037,-9.407,-9.4118,-9.4199,-9.42,-9.4279,-9.4361,-9.4331,-9.444,-9.4476,-9.4564,-9.459,-9.4674,-9.4616,-9.4665,-9.4677,-9.4689,-9.4704,-9.4345,-9.4687,-9.4686,-9.4685,-9.4685,-9.4684,0,-9.4167,-9.4187,-9.4269,-9.4341,-9.4412,-9.4347,-9.4398,-9.4461,-9.4558,-9.4598,-9.4667,-9.4777,-9.4861,-9.4866,-9.4945,-9.5011,-9.4983,-9.5033,-9.5026,-9.503,-9.4753,-9.4715,-9.5055,-9.5055,-9.5055,-9.5055,-9.5054,-9.5054,-9.4354,-9.45,-9.449,-9.4652,-9.4669,-9.4777,-9.4812,-9.4855,-9.4887,-9.5014,-9.5084,-9.5087,-9.5113,-9.5193,-9.5268,-9.5267,-9.5298,-9.5359,-9.5347,-9.5087,-9.505,-9.5015,-9.4978,-9.5367,-9.5368,-9.5616,-9.5618,-9.562]},{"header":{"parameterUnit":"m.s-1","parameterCategory":1,"la1":30.2991,"la2":30.254,"lo1":-89.0895,"lo2":-89.0444,"dy":0.0017,"dx":0.0017,"nx":28,"ny":28,"refTime":"2024-06-18T21:00:00:Z","depth":0,"parameterNumber":3,"parameterNumberName":"V-component_of_WINDS"},"data":[0,0,0,0,0,0,0,0,0,0,0,0,0,0,0,0,0,0,0,0,0,0,0,0,0,0,0,0,0,0,0,0,0,0,0,0,0,0,0,0,0,0,0,0,0,0,0,0,0,0,0,0,0,0,0,0,0,0,0.9573,0.9573,0,0.9638,0.9639,0.964,0.9654,0.9654,0.9654,0.9653,0.9716,0.9718,0.972,0,0,0,0,0,0,0,0,0,0,0,0,0,0.9458,0.946,0.9573,0.9573,0.9574,0.9638,0.9639,0.964,0.9655,0.9654,0.9653,0.9653,0.9716,0.9718,0.9721,0,0,0,0,0,0,0,0,0,0,0,0,0,0.9514,0.9461,0.9572,0.9589,0.9592,0.9638,0.9639,0.964,0.9655,0.9654,0.9653,0.9653,0.9715,0.9718,0.9721,0.9754,0,0,0.9731,0.9732,0,0,0,0,0,0,0,0,0.9511,0.9518,0.9586,0.9588,0.9591,0.9638,0.9622,0.9678,0.9655,0.9631,0.9653,0.9652,0.969,0.9695,0.9709,0.9757,0.9759,0.9731,0.9733,0.9734,0.9735,0,0,0,0,0,0,0,0.9507,0.9515,0.9598,0.9587,0.959,0.9593,0.96,0.9632,0.9663,0.9633,0.9634,0.9642,0.9692,0.9706,0.9711,0.976,0.9731,0.9734,0.9735,0.9737,0.984,0.9841,0,0,0,0,0,0,0.95,0.9512,0.9596,0.96,0.9548,0.9596,0.9604,0.9623,0.9663,0.9669,0.9642,0.9642,0.9701,0.9707,0.9713,0.9755,0.9734,0.9737,0.9739,0.9839,0.984,0.9841,0,0,0,0,0,0,0.9498,0.9508,0.9594,0.9557,0.9568,0.9598,0.962,0.9625,0.9639,0.967,0.9676,0.9652,0.9701,0.9709,0.9744,0.9758,0.9738,0.9741,0.9838,0.984,0.9841,0.984,0,0,0,0,0,0,0.9494,0.9507,0.952,0.9557,0.957,0.9624,0.9621,0.9627,0.9645,0.9646,0.968,0.9685,0.9701,0.9739,0.9747,0.9762,0.9744,0.9837,0.9839,0.984,0.9838,0.9841,0.9842,0,0,0,0,0,0.949,0.9516,0.952,0.9531,0.9587,0.9625,0.9632,0.9651,0.9646,0.966,0.968,0.9684,0.9755,0.9743,0.9752,0.9767,0.9836,0.9838,0.984,0.9838,0.984,0.9842,0,0,0,0,0,0,0.9477,0.9521,0.9527,0.9565,0.9591,0.9628,0.9645,0.9652,0.968,0.9679,0.9699,0.9707,0.9742,0.9758,0.9744,0.9802,0.9796,0.9799,0.979,0.9793,0.9795,0.979,0.9746,0,0,0,0,0,0.9479,0.9508,0.9543,0.9574,0.9587,0.9614,0.9631,0.9643,0.9671,0.9682,0.9704,0.973,0.9759,0.9777,0.9804,0.9841,0.9849,0.9856,0.9858,0.986,0.9863,0.9885,0.9889,0.9848,0.9848,0.9848,0,0,0.9482,0.951,0.9526,0.9572,0.9594,0.9623,0.9623,0.9652,0.9674,0.9686,0.9722,0.9739,0.977,0.9807,0.9824,0.9821,0.9876,0.9862,0.9863,0.9866,0.9888,0.9891,0.9895,0.9849,0.9849,0.9849,0,0,0.9504,0.9527,0.9556,0.9579,0.9613,0.9631,0.9638,0.9674,0.9687,0.9723,0.9734,0.9759,0.9807,0.9829,0.9846,0.9879,0.9884,0.9887,0.9897,0.9918,0.9922,0.9925,0.9937,0.9942,0.989,0.989,0.989,0,0.9503,0.9548,0.9569,0.9599,0.9619,0.9634,0.9663,0.9684,0.9724,0.9738,0.9735,0.9797,0.9818,0.9861,0.987,0.9883,0.9892,0.9883,0.992,0.9923,0.9926,0.9938,0.9943,0.989,0.989,0.989,0.989,0,0.9546,0.9577,0.9596,0.9638,0.966,0.9689,0.9715,0.9734,0.9745,0.9763,0.9801,0.9828,0.9862,0.9873,0.9883,0.9918,0.9916,0.9916,0.9909,0.993,0.9942,0.9947,0.989,0.989,0.989,0.989,0,0,0.9559,0.9615,0.9621,0.9641,0.9681,0.9705,0.9736,0.9771,0.9788,0.9816,0.9842,0.9884,0.9885,0.9905,0.9918,0.9936,0.9962,0.9935,0.9936,0.994,1.0004,1.0004,1.0009,0.9966,0.9967,0.9968,1.0002,0,0.9586,0.9643,0.9664,0.971,0.9739,0.9754,0.9781,0.9808,0.9827,0.9854,0.9873,0.9903,0.9902,0.9914,0.9934,0.9955,0.9975,0.9953,0.9991,0.9992,0.9983,1.0015,1.0015,1.0046,1.0007,1.0008,1.0008,0,0.9624,0.9656,0.9705,0.9744,0.9757,0.9781,0.9816,0.9842,0.9874,0.9886,0.9909,0.9921,0.9954,0.9946,0.9991,0.9975,0.9992,1.0005,1.0007,1.0011,1.0001,1.0021,1.0056,1.0061,1.0015,1.0015,1.0014,0,0.963,0.9685,0.9722,0.9739,0.9785,0.9801,0.9821,0.9852,0.9873,0.9903,0.9917,0.9949,0.9968,0.9993,1.0013,1.0006,1.0057,1.0051,1.0068,1.0068,1.0079,1.0078,1.0117,1.0089,1.0088,1.0088,1.0088,0,0.9658,0.9688,0.9726,0.9749,0.9783,0.9807,0.984,0.9861,0.9889,0.9916,0.993,0.9955,0.998,1.0008,1.0025,1.0061,1.0068,1.0079,1.0083,1.0078,1.0077,1.0089,1.0088,1.009,1.0089,1.0089,1.0089,0,0.9671,0.9697,0.9739,0.978,0.9791,0.9815,0.985,0.9872,0.9892,0.9926,0.9936,0.9966,1.0001,1.0024,1.0067,1.0078,1.0117,1.012,1.0107,1.0109,1.0126,1.0125,1.0175,1.0184,1.0149,1.0149,1.0149,0,0.9687,0.9711,0.9756,0.9776,0.9796,0.9828,0.985,0.9874,0.9897,0.9936,0.9954,0.999,1.0019,1.0073,1.0099,1.0132,1.0137,1.0153,1.0142,1.0137,1.0138,1.0137,1.014,1.0154,1.0154,1.0155,1.0155,0,0.9714,0.9726,0.9758,0.9796,0.9822,0.9852,0.9882,0.9897,0.9927,0.9951,0.9987,1.001,1.0056,1.0091,1.0128,1.0147,1.0156,1.0158,1.0164,1.016,1.0151,1.0157,1.0112,1.0157,1.0156,1.0156,1.0156,1.0156,0.9729,0.9752,0.9788,0.9824,0.9849,0.9878,0.9902,0.9926,0.9957,0.9997,1.001,1.0047,1.008,1.013,1.015,1.018,1.0179,1.0187,1.019,1.0191,1.0192,1.0147,1.0187,1.0187,1.0187,1.0187,1.0187,0,0.9758,0.9782,0.9815,0.9858,0.9886,0.9894,0.9928,0.9951,0.9984,1.0015,1.0045,1.0087,1.0122,1.0151,1.0188,1.0206,1.0211,1.0215,1.0214,1.0218,1.0191,1.0182,1.021,1.021,1.021,1.021,1.021,1.021,0.9776,0.9816,0.9833,0.9886,0.991,0.9948,0.9967,0.9994,1.0018,1.0066,1.0096,1.0115,1.0145,1.0184,1.0217,1.0225,1.0238,1.024,1.0249,1.0223,1.022,1.0218,1.021,1.0243,1.0243,1.0275,1.0275,1.0275]}]]